MSC Sinfonia — H8XH — position and weather

sailwx.info

Track history (hours):
 
Tides and Currents Weather Stations Pressure Air Temp Water Temp Dewpoint Dewpoint Depression Visibility Wind Speed Wind Dir Waves Ship Positions

MSC Sinfonia

Last reported at 2014-Oct-23 21:14 UTC. Time now 2014-Oct-24 12:56 UTC.
Position N 40°07' E 001°24'.

Length 251 m; draft 6.8 m.

Type: Passenger vessel. MMSI: 356715971.

Date/timePositionNaut miles runAvg speedWind from/ knotsBaromVisibWave heightAir tempDewpointWater temp
2014-Oct-23 21:14N 40°07' E 001°24'15913.1
2014-Oct-23 09:03N 37°49' W 000°17'713.8
2014-Oct-23 08:33N 37°43' W 000°21'1313.4
2014-Oct-23 07:33N 37°32' W 000°32'1413.7
2014-Oct-23 06:32N 37°23' W 000°45'23416.7
2014-Oct-22 16:33N 35°60' W 005°17'  
2014-Oct-18 17:32N 32°07' W 016°46'1717.3
2014-Oct-18 16:33N 32°24' W 016°50'1615.6
2014-Oct-18 15:33N 32°39' W 016°55'0 0.2
2014-Oct-18 14:34N 32°39' W 016°55'0 0.0
2014-Oct-18 13:33N 32°39' W 016°55'0 0.0
2014-Oct-18 12:33N 32°39' W 016°55'0 0.0
2014-Oct-18 11:34N 32°39' W 016°55'0 0.0
2014-Oct-18 10:34N 32°39' W 016°55'0 0.0
2014-Oct-18 09:33N 32°39' W 016°55'0 0.0
2014-Oct-18 08:34N 32°39' W 016°55'0 0.0
2014-Oct-18 07:31N 32°39' W 016°55'0 0.0
2014-Oct-18 06:33N 32°39' W 016°55'5 5.5
2014-Oct-18 05:34N 32°37' W 016°49'59218.4
2014-Oct-16 21:17N 35°58' W 005°34'1216.5
2014-Oct-16 20:33N 36°02' W 005°20'22610.3
2014-Oct-15 22:33N 37°19' W 000°55'1818.4
2014-Oct-15 21:33N 37°31' W 000°37'1818.2
2014-Oct-15 20:33N 37°44' W 000°22'1917.8
2014-Oct-15 19:30N 37°58' W 000°06'1717.9
2014-Oct-15 18:33N 38°11' E 000°08'11719.1
2014-Oct-15 12:24N 39°35' E 001°52'1719.8
2014-Oct-15 11:33N 39°47' E 002°09'2019.6
2014-Oct-15 10:33N 39°60' E 002°27'1919.3
2014-Oct-15 09:33N 40°13' E 002°46'1918.8
2014-Oct-15 08:33N 40°26' E 003°04'1818.3
2014-Oct-15 07:33N 40°38' E 003°22'2718.3
2014-Oct-15 06:07N 40°56' E 003°48'18719.4
2014-Oct-14 20:29N 43°00' E 006°56'10120.5
2014-Oct-14 15:33N 44°08' E 008°39'1918.7
2014-Oct-14 14:33N 44°22' E 008°57'3 2.8
2014-Oct-14 13:29N 44°25' E 008°55'0 0.0
2014-Oct-14 11:29N 44°25' E 008°55'0 0.0
2014-Oct-14 10:29N 44°25' E 008°55'0 0.0
2014-Oct-14 09:29N 44°25' E 008°55'0 0.0
2014-Oct-14 08:32N 44°25' E 008°55'0 0.0
2014-Oct-14 07:29N 44°25' E 008°55'1 0.6
2014-Oct-14 06:33N 44°24' E 008°55'1110.9
2014-Oct-14 05:33N 44°14' E 008°50'2019.5
2014-Oct-14 04:33N 44°00' E 008°31'5618.7
2014-Oct-14 01:33N 43°26' E 007°29'2018.8
2014-Oct-14 00:30N 43°14' E 007°07'1818.8
2014-Oct-13 23:33N 43°03' E 006°48'  
Track history (hours):
 
Tides and Currents Weather Stations Pressure Air Temp Water Temp Dewpoint Dewpoint Depression Visibility Wind Speed Wind Dir Waves Ship Positions

MSC Sinfonia

Last reported at 2014-Oct-23 21:14 UTC. Time now 2014-Oct-24 12:56 UTC.
Position N 40°07' E 001°24'.

Length 251 m; draft 6.8 m.

Type: Passenger vessel. MMSI: 356715971.

Date/timePositionNaut miles runAvg speedWind from/ knotsBaromVisibWave heightAir tempDewpointWater temp
2014-Oct-23 21:14N 40°07' E 001°24'15913.1
2014-Oct-23 09:03N 37°49' W 000°17'713.8
2014-Oct-23 08:33N 37°43' W 000°21'1313.4
2014-Oct-23 07:33N 37°32' W 000°32'1413.7
2014-Oct-23 06:32N 37°23' W 000°45'23416.7
2014-Oct-22 16:33N 35°60' W 005°17'  
2014-Oct-18 17:32N 32°07' W 016°46'1717.3
2014-Oct-18 16:33N 32°24' W 016°50'1615.6
2014-Oct-18 15:33N 32°39' W 016°55'0 0.2
2014-Oct-18 14:34N 32°39' W 016°55'0 0.0
2014-Oct-18 13:33N 32°39' W 016°55'0 0.0
2014-Oct-18 12:33N 32°39' W 016°55'0 0.0
2014-Oct-18 11:34N 32°39' W 016°55'0 0.0
2014-Oct-18 10:34N 32°39' W 016°55'0 0.0
2014-Oct-18 09:33N 32°39' W 016°55'0 0.0
2014-Oct-18 08:34N 32°39' W 016°55'0 0.0
2014-Oct-18 07:31N 32°39' W 016°55'0 0.0
2014-Oct-18 06:33N 32°39' W 016°55'5 5.5
2014-Oct-18 05:34N 32°37' W 016°49'59218.4
2014-Oct-16 21:17N 35°58' W 005°34'1216.5
2014-Oct-16 20:33N 36°02' W 005°20'22610.3
2014-Oct-15 22:33N 37°19' W 000°55'1818.4
2014-Oct-15 21:33N 37°31' W 000°37'1818.2
2014-Oct-15 20:33N 37°44' W 000°22'1917.8
2014-Oct-15 19:30N 37°58' W 000°06'1717.9
2014-Oct-15 18:33N 38°11' E 000°08'11719.1
2014-Oct-15 12:24N 39°35' E 001°52'1719.8
2014-Oct-15 11:33N 39°47' E 002°09'2019.6
2014-Oct-15 10:33N 39°60' E 002°27'1919.3
2014-Oct-15 09:33N 40°13' E 002°46'1918.8
2014-Oct-15 08:33N 40°26' E 003°04'1818.3
2014-Oct-15 07:33N 40°38' E 003°22'2718.3
2014-Oct-15 06:07N 40°56' E 003°48'18719.4
2014-Oct-14 20:29N 43°00' E 006°56'10120.5
2014-Oct-14 15:33N 44°08' E 008°39'1918.7
2014-Oct-14 14:33N 44°22' E 008°57'3 2.8
2014-Oct-14 13:29N 44°25' E 008°55'0 0.0
2014-Oct-14 11:29N 44°25' E 008°55'0 0.0
2014-Oct-14 10:29N 44°25' E 008°55'0 0.0
2014-Oct-14 09:29N 44°25' E 008°55'0 0.0
2014-Oct-14 08:32N 44°25' E 008°55'0 0.0
2014-Oct-14 07:29N 44°25' E 008°55'1 0.6
2014-Oct-14 06:33N 44°24' E 008°55'1110.9
2014-Oct-14 05:33N 44°14' E 008°50'2019.5
2014-Oct-14 04:33N 44°00' E 008°31'5618.7
2014-Oct-14 01:33N 43°26' E 007°29'2018.8
2014-Oct-14 00:30N 43°14' E 007°07'1818.8
2014-Oct-13 23:33N 43°03' E 006°48'  

Dump ship's entire track history